This is the latest recevied weather packets stored in our database for station/object EA7JCM-13. If no packets are shown the sender has not sent any weather packets the latest 10 day(s).
| Time | Temp. | Humidity | Pressure | Rain* | Wind** | Luminosity | Snow |
|---|---|---|---|---|---|---|---|
| 1777550403 | 20.56° C | 65% | 1012.6 hPa | 0 mm | - | - | - |
| 1777550103 | 20.56° C | 64% | 1012.7 hPa | 0 mm | - | - | - |
| 1777549802 | 20.56° C | 64% | 1012.7 hPa | 0 mm | - | - | - |
| 1777549503 | 20° C | 64% | 1012.5 hPa | 0 mm | - | - | - |
| 1777549203 | 19.44° C | 65% | 1012.7 hPa | 0 mm | - | - | - |
| 1777548903 | 20.56° C | 65% | 1012.6 hPa | 0 mm | - | - | - |
| 1777548603 | 20° C | 66% | 1012.6 hPa | 0 mm | - | - | - |
| 1777548303 | 20° C | 67% | 1012.6 hPa | 0 mm | - | - | - |
| 1777548003 | 19.44° C | 68% | 1012.7 hPa | 0 mm | - | - | - |
| 1777547702 | 19.44° C | 69% | 1012.9 hPa | 0 mm | - | - | - |
| 1777547403 | 18.89° C | 68% | 1012.8 hPa | 0 mm | - | - | - |
| 1777547104 | 19.44° C | 67% | 1012.7 hPa | 0 mm | - | - | - |
| 1777546804 | 19.44° C | 68% | 1012.8 hPa | 0 mm | - | - | - |
| 1777546503 | 18.89° C | 69% | 1013.1 hPa | 0 mm | - | - | - |
| 1777546203 | 19.44° C | 70% | 1012.9 hPa | 0 mm | - | - | - |
| 1777545903 | 19.44° C | 69% | 1012.9 hPa | 0 mm | - | - | - |
| 1777545603 | 18.89° C | 70% | 1012.9 hPa | 0 mm | - | - | - |
| 1777545303 | 18.89° C | 69% | 1013 hPa | 0 mm | - | - | - |
| 1777545003 | 18.89° C | 70% | 1013.1 hPa | 0 mm | - | - | - |
| 1777544703 | 18.33° C | 70% | 1012.9 hPa | 0 mm | - | - | - |
| 1777544403 | 18.33° C | 71% | 1013.2 hPa | 0 mm | - | - | - |
| 1777544102 | 18.33° C | 71% | 1013.2 hPa | 0 mm | - | - | - |
| 1777543803 | 18.33° C | 71% | 1013.1 hPa | 0 mm | - | - | - |
| 1777543503 | 18.33° C | 72% | 1013 hPa | 0 mm | - | - | - |
| 1777543202 | 18.33° C | 73% | 1012.8 hPa | 0 mm | - | - | - |
* Rain latest hour (hover to see other rain measurements)
** Current wind speed in m/s (hover to see current wind gust speed)